Temperature
17 17 18 18 21 21 22 22 22 22 22 22 21 22 24 26 26 25 21 20 20 21 21 19 18 17 16 16 16 16 16 15 15 15 15 15 15 15 15 15 15 14 14 14 14 14 14 14 14
17 17 18 19 21 21 22 22 22 22 22 20 21 22 23 24 22 20 20 20 19 20 20 19 18 17 16 16 16 16 15 15 15 15 15 15 15 15 15 14 14 14 14 14 14 14 14 14 14
16 17 19 20 20 21 22 22 22 21 20 21 22 22 23 23 21 19 19 19 18 19 19 19 19 17 17 16 16 16 15 15 15 15 15 15 16 16 15 14 14 14 14 14 14 14 14 15 14
16 17 19 20 20 21 22 22 21 21 21 21 22 23 22 20 19 19 20 19 18 18 18 19 18 18 17 16 16 16 16 15 15 15 15 16 16 16 15 15 15 14 14 14 14 14 15 15 14
15 18 19 19 20 21 21 21 20 21 22 22 22 23 23 20 20 20 19 19 18 17 17 18 18 18 17 17 17 16 16 15 15 15 15 16 16 16 16 15 15 14 14 14 15 15 15 14 14
16 18 19 19 20 21 21 20 20 21 22 22 22 23 22 20 20 19 19 19 18 17 17 18 18 17 17 17 17 16 16 15 15 15 15 16 16 16 16 15 15 15 15 15 15 15 14 14 14
17 18 19 19 20 20 21 19 20 21 22 22 21 23 22 19 20 19 18 18 17 17 17 17 17 17 17 17 17 17 16 15 15 15 15 15 15 16 16 15 15 15 15 15 15 14 14 14 14
16 19 19 19 19 20 20 19 20 20 21 20 20 22 22 18 20 19 19 18 17 17 17 17 17 16 17 17 17 17 16 15 15 14 14 15 15 15 15 15 15 15 15 15 14 14 14 14 14
14 17 18 19 19 20 19 19 19 18 20 19 19 19 18 18 19 19 19 18 18 17 17 17 17 16 16 16 17 17 16 15 14 14 14 14 14 14 15 15 15 15 14 14 14 14 14 14 14
15 17 18 19 19 19 19 19 19 19 20 20 19 18 18 18 19 18 18 18 17 17 17 16 16 16 16 16 17 16 16 15 15 14 14 14 13 13 13 14 15 15 14 14 14 14 14 13 13
15 17 18 16 16 18 18 18 18 20 20 20 19 18 17 17 17 16 16 16 16 16 17 17 16 17 16 17 16 16 16 15 15 14 15 14 13 13 13 14 14 14 14 14 14 14 13 13 13
15 16 16 16 15 16 18 18 18 19 19 17 17 17 16 16 15 15 15 15 16 16 16 17 17 17 17 16 16 16 16 16 15 15 15 15 14 14 14 13 13 14 14 14 14 13 13 13 13
14 15 14 15 15 15 16 17 17 18 17 16 16 16 16 16 15 15 15 15 15 16 16 17 17 17 17 17 16 16 16 16 16 16 16 15 15 15 14 14 14 14 13 14 14 13 13 13 13
14 14 15 15 15 15 16 16 16 17 16 16 16 17 17 17 16 16 15 15 16 16 16 16 17 17 17 17 17 17 16 16 15 16 16 16 15 15 15 14 14 14 14 13 13 13 13 13 13
13 14 14 15 15 15 15 16 17 17 16 17 17 17 16 16 16 16 16 16 16 16 16 16 16 16 17 17 17 17 17 16 16 16 15 15 15 15 15 15 14 14 14 13 13 13 13 12 12
14 14 14 15 15 15 15 16 17 16 16 16 17 17 16 16 16 16 16 16 16 16 16 16 16 17 17 17 17 17 17 17 16 16 16 15 15 15 15 15 14 14 14 13 13 13 12 12 12
13 13 14 14 14 15 15 15 16 14 15 16 16 16 16 16 16 16 16 16 17 17 17 17 16 16 17 17 17 17 17 17 17 16 16 16 15 15 15 14 14 14 14 13 13 12 12 12 12
13 14 14 14 14 14 14 15 16 15 14 16 16 16 15 15 15 15 16 16 16 16 17 17 17 17 16 16 16 16 16 17 17 17 17 17 16 16 15 15 14 14 14 13 13 12 12 12 11
14 13 14 14 13 13 14 14 15 15 15 15 15 16 15 14 14 14 15 16 16 16 16 16 16 17 16 16 15 16 16 17 18 18 18 17 17 16 16 15 15 14 14 13 13 12 12 11 11
13 13 13 12 12 13 13 14 15 15 14 14 14 14 13 13 13 13 14 14 15 16 16 16 16 16 16 16 16 16 16 16 17 17 17 17 17 17 16 16 15 15 14 14 13 12 12 12 11
12 13 13 12 11 11 12 14 14 13 12 11 11 11 11 11 12 12 12 13 14 15 15 16 16 16 16 16 16 15 15 15 15 16 17 17 17 17 16 16 15 15 15 14 14 13 12 12 11
12 12 12 12 13 13 12 15 14 13 12 12 12 11 11 10 11 10 11 12 13 13 14 14 15 15 15 16 15 15 14 14 15 15 16 16 16 16 16 15 15 14 15 14 14 13 13 12 12
11 11 11 11 12 12 12 13 15 13 12 12 12 11 11 10 10 10 10 11 12 13 13 13 14 14 15 15 15 15 14 13 13 13 14 14 15 15 15 14 14 14 14 14 14 14 13 12 12
10 10 10 10 11 12 12 13 15 13 13 12 12 11 10 10 10 10 10 11 11 12 13 13 13 13 14 14 14 14 14 13 13 13 13 13 13 14 14 14 13 13 13 14 14 14 13 13 12
10 10 10 10 11 12 10 11 14 12 12 12 12 11 10 10 10 9 10 10 11 11 12 12 13 13 13 13 13 13 13 13 13 13 13 12 12 12 13 13 13 13 13 13 12 12 13 12 12
9 10 11 12 12 12 9 11 13 12 11 10 10 10 10 10 9 9 9 9 9 10 10 11 11 12 12 12 12 13 13 13 13 13 12 12 12 12 12 12 12 12 12 11 11 11 11 11 11
8 9 10 11 10 12 12 11 12 11 11 11 11 10 10 10 9 8 8 8 8 9 9 9 10 10 10 11 11 11 12 12 12 12 12 12 12 12 12 12 12 11 11 10 10 10 10 10 10
9 9 9 9 10 12 13 13 13 12 12 12 12 11 10 9 9 8 7 7 7 8 8 8 8 8 9 9 9 10 10 11 11 11 12 12 12 12 12 11 11 11 10 9 9 9 9 9 9
8 8 9 10 10 12 13 14 13 13 12 12 12 11 10 9 8 7 6 6 7 7 7 7 7 7 8 8 8 9 9 10 10 10 11 11 11 11 11 11 10 10 9 9 9 9 9 9 9
9 9 9 10 9 9 11 13 12 12 12 11 11 10 9 8 6 6 5 5 5 6 6 6 6 7 7 7 7 8 8 8 9 9 10 10 10 10 10 10 9 9 8 8 8 9 9 8 8
Wind_Speed
4 3 2 2 4 5 7 4 2 2 2 1 3 5 5 5 4 1 3 9 12 17 19 19 17 16 16 17 18 18 17 16 15 14 12 11 10 9 8 8 9 11 13 15 16 15 15 14 13
4 3 3 3 6 9 7 5 6 2 3 5 4 6 5 3 2 3 4 11 15 17 18 18 18 16 16 17 18 18 17 16 15 13 12 11 10 9 9 10 12 14 15 15 15 14 14 13 12
4 3 5 5 9 11 5 3 5 1 3 2 1 3 3 2 3 2 6 14 15 15 16 17 19 17 16 16 17 17 16 16 15 13 12 11 10 10 10 11 13 14 14 14 13 13 12 11 11
5 5 5 10 15 14 7 3 5 1 2 2 4 1 1 3 4 4 11 15 16 15 16 18 17 17 15 15 16 16 16 15 15 14 13 11 11 10 11 11 12 12 13 12 12 11 10 9 9
6 7 11 15 18 12 10 5 3 3 4 4 5 2 2 4 4 8 14 15 15 14 14 17 17 16 15 14 14 15 16 16 15 14 13 12 11 11 10 10 10 10 10 11 10 10 9 8 7
9 9 14 18 20 14 11 8 7 8 6 4 4 2 3 4 4 9 13 13 13 13 13 15 16 15 13 13 13 14 15 16 15 14 13 13 12 11 10 9 9 9 9 9 9 9 8 7 6
13 14 20 21 19 18 13 8 10 9 8 5 3 2 3 5 5 8 11 12 12 13 13 13 14 14 12 12 12 13 14 16 16 15 14 13 13 12 11 9 9 9 9 9 9 9 8 7 6
10 10 21 22 21 19 12 8 7 9 7 2 3 4 3 4 6 8 9 10 11 12 12 12 13 12 13 12 12 12 14 16 16 15 14 14 13 12 11 10 8 8 8 9 9 9 8 8 7
8 13 20 21 17 14 10 10 7 3 4 3 2 2 3 4 9 10 9 9 10 10 11 11 12 11 11 10 12 13 13 16 17 15 15 14 11 11 11 9 9 8 8 9 10 10 9 9 9
13 18 22 13 12 10 12 11 8 7 7 6 4 1 2 7 10 11 10 11 11 12 12 11 11 11 11 9 10 12 13 15 15 14 15 13 10 9 8 11 10 8 8 9 11 11 9 6 6
13 16 14 6 7 9 11 10 7 8 7 6 4 1 3 7 9 10 10 10 10 11 11 11 11 11 11 9 9 9 10 11 14 14 15 13 11 9 9 10 11 10 10 10 10 9 6 5 4
12 10 9 9 7 8 10 8 7 7 4 6 3 2 3 7 9 10 9 9 9 10 12 12 12 11 11 10 9 9 9 10 11 13 15 13 10 9 9 9 10 10 9 9 8 6 6 6 5
11 10 7 5 7 6 6 7 5 6 4 3 1 2 3 5 8 10 10 9 10 11 11 12 13 12 11 11 9 9 9 10 12 12 14 14 11 10 10 9 10 10 9 9 8 8 7 6 6
10 9 8 6 6 5 7 7 6 8 5 5 5 6 5 5 7 9 10 11 12 12 12 13 14 14 13 11 10 10 11 11 12 13 15 16 14 11 10 10 10 11 11 10 9 9 7 6 6
10 9 7 7 7 5 6 12 14 13 10 11 11 10 9 8 8 9 10 11 12 12 13 14 14 15 15 15 13 12 12 12 12 13 15 17 16 14 12 10 10 11 12 11 9 9 7 6 6
11 12 11 10 11 8 8 13 8 7 9 12 12 12 11 11 11 10 10 10 11 11 13 14 13 15 17 16 14 12 12 13 12 13 14 18 19 17 14 11 11 13 12 11 9 8 7 7 7
12 15 18 11 10 9 13 12 6 4 6 8 9 9 9 10 10 10 9 10 10 11 12 13 14 16 16 16 13 13 12 12 13 14 14 17 19 19 16 12 12 14 12 10 9 9 9 8 8
18 16 16 15 8 10 12 11 8 7 7 10 10 10 9 10 10 9 8 8 9 9 10 12 13 15 15 14 12 11 11 12 13 14 15 18 18 20 18 13 14 14 11 11 11 11 9 8 7
14 14 12 10 5 8 10 11 11 11 11 12 12 11 9 8 7 6 6 6 6 7 9 11 12 13 13 12 12 13 14 14 13 13 17 18 18 19 18 13 14 14 13 14 15 12 12 8 8
14 13 10 6 4 4 5 10 10 8 8 7 7 6 4 3 2 3 3 3 4 5 7 9 10 11 13 12 12 13 14 13 14 12 14 18 19 19 17 18 15 15 14 16 17 14 10 8 10
11 12 10 6 5 3 3 6 5 3 3 3 3 3 3 3 4 5 5 5 4 4 5 6 8 9 10 12 11 11 12 12 12 13 14 17 19 20 18 18 17 16 16 15 18 18 16 11 11
9 6 8 7 6 3 2 3 4 5 7 8 8 7 7 6 6 6 7 7 7 6 6 6 6 7 8 9 11 15 14 15 17 15 14 16 17 18 19 18 17 16 15 17 18 18 16 15 12
6 7 6 4 3 2 3 4 4 7 9 8 7 7 7 6 6 7 7 7 7 7 6 6 6 5 5 6 9 12 15 15 14 15 16 16 15 16 17 17 16 16 16 18 18 18 19 16 15
11 8 6 3 2 5 5 6 5 7 9 9 6 4 5 6 6 7 7 7 7 8 7 7 7 7 6 6 7 10 13 15 16 16 15 15 13 13 17 16 16 16 15 18 18 18 20 18 17
6 6 4 5 6 5 4 5 5 6 6 5 4 1 4 5 6 8 9 9 9 10 10 9 9 9 8 8 8 8 11 13 16 16 15 15 13 12 15 15 16 15 15 15 15 15 17 18 17
8 7 4 5 6 4 4 6 3 4 3 4 4 3 4 5 6 7 8 9 9 10 10 10 11 11 10 9 9 9 9 9 10 13 13 14 12 12 13 15 15 15 14 13 12 11 13 13 14
7 5 1 1 1 2 5 4 3 4 5 6 5 2 4 6 6 7 8 8 9 10 10 10 10 11 11 11 11 10 9 9 10 11 11 11 12 10 11 12 13 13 12 12 11 10 11 10 10
1 6 4 4 4 4 4 5 7 12 11 7 2 4 7 7 7 8 8 9 9 9 9 9 9 10 11 11 10 9 10 10 9 9 10 10 10 9 9 10 11 11 11 11 10 8 9 10 8
6 4 3 3 2 3 4 3 5 12 8 3 3 6 8 8 8 8 8 9 9 9 9 9 10 10 10 10 10 9 9 9 8 8 8 8 7 7 7 8 9 10 10 11 11 10 11 11 10
3 5 6 4 4 3 2 3 5 6 4 3 6 7 7 6 7 7 8 9 9 10 10 10 10 10 10 10 10 9 9 8 7 6 6 5 4 4 4 5 6 7 9 10 11 11 12 12 13
Wind_Direction
271 282 269 248 235 232 237 221 225 198 200 308 289 251 246 232 229 224 81 153 145 148 148 152 152 153 152 149 143 139 137 135 132 130 128 125 123 121 111 100 99 109 112 107 105 102 101 100 98
248 232 220 225 235 229 225 217 208 183 337 318 269 241 239 232 8 62 135 150 150 149 149 156 149 152 150 146 143 142 140 138 135 132 128 126 126 124 114 99 97 99 100 99 99 99 101 102 101
210 233 212 213 229 231 223 194 182 99 341 329 311 240 272 358 27 95 138 151 152 151 151 148 150 152 151 149 149 148 145 142 138 133 128 127 129 128 117 100 95 95 96 96 97 99 102 104 102
198 184 206 225 228 229 231 128 146 157 24 13 340 252 166 38 10 106 142 153 154 153 152 150 151 149 149 150 152 153 151 147 140 134 131 130 131 129 117 103 97 96 97 98 100 101 103 104 102
209 201 211 225 231 227 227 215 215 279 326 343 335 321 115 63 59 129 149 155 156 155 153 153 150 149 151 155 158 160 157 152 146 141 138 136 133 129 123 115 109 107 107 108 109 107 106 103 101
194 207 219 225 227 224 229 225 238 261 283 306 314 292 101 76 103 142 153 158 158 156 155 154 151 149 156 162 166 168 163 157 152 149 147 142 137 135 134 130 125 122 122 121 119 114 109 103 101
205 208 223 227 230 227 227 217 234 252 260 273 297 257 124 92 104 149 157 160 162 161 161 162 165 164 164 170 175 176 171 163 159 157 155 149 144 143 144 142 139 137 135 131 126 119 113 108 106
219 216 226 227 230 231 221 209 232 238 251 250 253 246 108 85 128 148 154 162 168 169 170 170 173 175 177 180 182 183 177 169 164 163 161 155 153 154 155 159 153 148 144 140 132 123 117 112 110
201 216 221 218 225 228 202 206 204 212 219 208 232 330 13 119 143 152 158 168 176 181 182 181 180 181 183 183 177 186 181 175 171 172 168 170 177 171 170 166 159 163 157 149 137 129 124 120 115
198 218 222 218 216 208 188 199 187 184 196 201 200 82 57 154 165 172 178 181 185 189 191 191 190 188 188 183 182 190 189 186 190 188 184 193 192 185 177 163 175 175 163 152 142 138 143 157 141
203 223 217 193 189 183 179 184 183 196 196 191 183 95 117 171 185 191 194 194 195 195 197 201 200 198 195 190 192 191 193 195 200 197 193 196 194 189 190 180 183 186 178 172 153 167 176 176 161
204 209 203 190 166 170 175 175 186 206 170 130 101 66 151 184 199 205 206 206 204 204 204 206 208 206 206 204 199 201 199 199 202 203 201 199 199 200 198 198 193 192 194 190 191 196 181 180 178
199 190 178 163 163 167 170 191 203 212 176 174 224 221 194 197 205 211 216 217 215 215 213 212 213 213 211 212 213 212 211 208 207 207 208 206 204 205 203 206 201 203 200 196 200 200 191 189 184
187 174 176 179 175 181 209 227 236 233 218 223 230 236 232 224 219 217 218 223 223 221 219 215 215 217 216 215 216 218 219 216 218 212 211 211 212 210 206 208 206 206 204 204 203 204 195 193 190
180 183 194 206 200 195 209 238 235 243 246 247 245 247 250 250 242 239 235 233 232 229 225 219 217 217 218 220 221 222 223 222 221 219 216 214 215 214 210 211 207 207 205 203 205 200 198 192 189
180 201 216 213 211 203 213 244 222 231 239 246 248 249 251 256 256 254 252 248 246 241 234 229 220 220 220 221 221 222 223 224 227 224 221 218 217 216 214 213 210 206 201 199 198 195 194 192 194
188 208 212 203 205 203 217 248 224 206 228 243 246 248 253 259 262 261 259 255 252 247 242 237 229 228 226 224 223 223 222 223 227 228 224 220 218 215 214 215 211 204 201 201 199 200 200 198 195
191 198 201 202 184 199 217 232 228 230 250 258 261 261 260 263 270 281 283 275 264 256 250 244 238 234 233 230 228 225 224 225 226 228 228 225 220 216 214 214 212 203 201 202 201 199 199 200 186
181 185 187 188 162 199 221 238 247 252 253 258 261 265 268 273 285 294 296 290 275 262 253 248 245 239 235 231 226 225 226 227 227 227 229 228 224 218 214 213 210 204 206 204 203 197 193 189 174
176 182 175 152 153 209 230 251 256 258 253 261 267 271 279 295 318 342 336 323 300 282 271 261 252 248 241 234 232 232 232 232 231 227 228 228 226 221 216 215 211 207 208 206 203 195 194 186 185
180 187 174 153 144 145 269 245 195 131 124 111 103 93 75 55 40 31 23 17 2 338 312 290 275 264 254 248 242 239 237 237 233 230 228 226 224 222 218 220 217 210 208 207 204 199 195 192 195
165 168 157 151 180 175 266 227 153 131 120 109 102 89 71 52 40 31 25 21 14 359 340 316 299 281 268 256 244 238 234 233 233 232 232 230 225 223 220 221 221 215 213 211 206 204 205 199 195
130 119 125 139 168 210 211 237 165 150 140 122 107 82 59 43 31 25 17 8 4 357 347 337 326 309 290 266 250 247 245 245 245 242 240 237 230 223 219 219 220 219 217 218 211 206 207 206 202
124 105 89 96 196 234 206 219 189 168 155 143 126 83 46 28 18 14 9 1 358 356 350 341 333 326 317 294 268 251 250 249 248 246 244 241 237 228 221 217 218 219 219 222 218 211 211 210 210
149 152 158 185 206 220 155 223 220 149 155 163 154 71 10 1 1 1 359 355 351 348 344 337 331 324 321 310 291 273 261 256 252 250 247 245 242 234 225 218 220 220 221 223 222 216 215 215 214
173 194 210 201 194 171 179 227 167 158 202 219 228 262 314 341 351 351 350 347 343 340 337 334 329 321 319 313 303 291 278 266 259 255 253 250 247 242 233 223 223 221 220 220 218 217 216 215 216
157 187 312 75 101 221 202 221 236 192 185 187 197 263 329 341 346 348 348 346 341 337 335 331 325 320 318 315 309 299 291 277 270 266 260 256 253 251 239 226 220 219 215 211 207 210 208 204 204
132 146 160 194 207 220 201 208 180 169 167 170 204 334 342 343 347 351 349 348 344 339 335 332 329 324 321 319 314 307 300 292 283 276 266 260 257 250 240 228 219 213 206 199 195 194 190 185 179
152 161 178 180 245 236 202 154 145 159 160 179 315 334 337 342 348 349 349 350 348 348 347 346 343 338 334 330 322 315 310 303 295 285 278 272 262 250 238 226 215 204 195 188 185 181 173 168 159
214 190 180 198 203 221 249 139 130 170 187 262 311 329 338 348 351 352 354 355 358 358 357 356 352 348 344 338 333 329 324 318 313 308 304 295 278 258 237 212 195 188 181 177 176 170 165 161 156
Height
1532 1533 1534 1536 1534 1531 1528 1525 1526 1526 1526 1527 1528 1526 1523 1521 1521 1525 1525 1523 1525 1528 1531 1533 1535 1538 1541 1543 1545 1546 1548 1549 1550 1551 1551 1551 1551 1551 1551 1552 1552 1553 1554 1554 1555 1556 1556 1556 1555
1531 1533 1536 1535 1531 1531 1527 1523 1525 1525 1527 1528 1527 1526 1524 1522 1523 1523 1522 1522 1525 1529 1532 1534 1536 1539 1541 1543 1545 1547 1548 1549 1550 1550 1551 1551 1551 1551 1552 1553 1554 1555 1555 1556 1557 1557 1557 1557 1557
1530 1532 1535 1531 1529 1527 1524 1522 1524 1527 1528 1527 1525 1525 1524 1523 1524 1523 1522 1523 1526 1530 1533 1534 1536 1539 1541 1543 1545 1547 1548 1549 1550 1551 1551 1551 1552 1552 1553 1554 1555 1556 1557 1557 1558 1558 1558 1558 1558
1529 1532 1533 1529 1526 1522 1521 1523 1526 1527 1526 1526 1525 1523 1524 1524 1523 1523 1522 1524 1528 1531 1534 1535 1537 1540 1542 1544 1545 1547 1548 1549 1550 1551 1552 1552 1552 1553 1554 1555 1556 1557 1558 1558 1559 1559 1559 1560 1560
1528 1528 1526 1525 1522 1520 1523 1526 1528 1526 1525 1525 1525 1523 1523 1524 1523 1523 1524 1527 1530 1532 1535 1536 1538 1540 1542 1544 1546 1547 1548 1550 1551 1552 1552 1553 1553 1554 1555 1556 1557 1558 1559 1559 1560 1560 1561 1561 1561
1526 1523 1521 1520 1518 1519 1523 1526 1527 1526 1525 1525 1525 1523 1523 1524 1524 1525 1526 1529 1531 1533 1535 1536 1538 1541 1543 1545 1546 1547 1549 1550 1551 1552 1553 1554 1554 1555 1556 1556 1557 1558 1559 1560 1560 1561 1561 1561 1562
1520 1517 1514 1514 1515 1517 1520 1524 1525 1524 1524 1525 1525 1523 1524 1525 1524 1526 1528 1530 1532 1534 1535 1537 1539 1541 1543 1545 1546 1548 1549 1550 1551 1552 1553 1554 1555 1556 1557 1557 1558 1559 1559 1560 1561 1561 1561 1562 1562
1516 1514 1511 1510 1512 1514 1518 1522 1523 1523 1523 1524 1525 1523 1523 1525 1525 1526 1527 1529 1532 1533 1535 1537 1539 1541 1543 1545 1546 1548 1549 1551 1552 1553 1554 1555 1555 1556 1557 1558 1559 1559 1560 1560 1561 1561 1562 1562 1562
1515 1513 1507 1507 1511 1512 1517 1520 1521 1522 1523 1523 1524 1524 1524 1524 1524 1526 1527 1528 1530 1532 1534 1537 1539 1541 1543 1545 1546 1547 1549 1551 1552 1553 1553 1554 1556 1557 1557 1558 1559 1560 1560 1561 1561 1562 1562 1562 1562
1512 1506 1502 1504 1509 1511 1515 1517 1519 1520 1521 1522 1523 1523 1522 1523 1524 1525 1526 1527 1529 1530 1533 1535 1538 1540 1542 1543 1545 1547 1548 1550 1551 1553 1553 1555 1556 1557 1558 1557 1558 1559 1560 1560 1561 1561 1561 1562 1562
1507 1503 1503 1509 1511 1512 1513 1516 1518 1518 1518 1520 1521 1522 1522 1522 1523 1524 1526 1527 1528 1530 1531 1534 1536 1538 1540 1542 1544 1546 1547 1549 1550 1552 1552 1554 1555 1556 1556 1557 1557 1558 1559 1560 1560 1561 1561 1561 1561
1506 1506 1507 1509 1511 1512 1513 1515 1517 1517 1518 1520 1521 1521 1521 1521 1522 1524 1525 1527 1528 1529 1530 1532 1534 1536 1538 1540 1542 1543 1545 1546 1548 1549 1550 1551 1552 1553 1554 1555 1556 1557 1558 1558 1559 1559 1560 1560 1559
1504 1506 1508 1510 1512 1513 1514 1515 1516 1517 1519 1519 1520 1520 1521 1522 1522 1523 1524 1525 1526 1527 1529 1530 1532 1534 1536 1538 1539 1541 1542 1543 1545 1546 1547 1548 1549 1550 1551 1552 1553 1554 1555 1556 1557 1557 1558 1558 1558
1504 1506 1508 1510 1511 1513 1514 1514 1516 1514 1517 1518 1519 1520 1521 1521 1522 1522 1523 1524 1525 1526 1527 1528 1530 1532 1533 1535 1536 1538 1539 1540 1541 1542 1543 1544 1545 1546 1547 1549 1549 1551 1552 1553 1554 1555 1555 1555 1555
1504 1506 1507 1508 1510 1512 1514 1512 1512 1513 1515 1516 1517 1517 1518 1519 1519 1520 1521 1522 1523 1524 1525 1526 1527 1529 1530 1531 1532 1534 1535 1536 1537 1538 1539 1540 1541 1542 1543 1544 1545 1547 1548 1549 1550 1551 1552 1552 1553
1503 1505 1506 1504 1507 1510 1514 1507 1508 1510 1511 1512 1513 1514 1515 1515 1516 1517 1517 1518 1519 1520 1522 1523 1524 1525 1526 1527 1528 1529 1530 1531 1532 1534 1534 1535 1537 1538 1539 1540 1540 1542 1543 1545 1546 1547 1548 1549 1550
1501 1499 1500 1502 1504 1506 1508 1504 1506 1508 1509 1509 1509 1510 1511 1511 1512 1513 1513 1514 1514 1515 1517 1518 1519 1521 1522 1523 1524 1524 1525 1526 1527 1528 1529 1530 1531 1532 1534 1534 1536 1537 1538 1539 1541 1542 1544 1545 1546
1492 1491 1495 1499 1502 1504 1504 1503 1504 1506 1507 1506 1506 1507 1507 1508 1508 1508 1508 1508 1509 1510 1511 1513 1514 1516 1517 1518 1518 1519 1519 1520 1521 1522 1523 1524 1525 1527 1528 1529 1530 1531 1533 1534 1535 1537 1539 1540 1542
1487 1491 1494 1497 1503 1503 1502 1502 1502 1502 1503 1503 1502 1503 1503 1504 1504 1503 1503 1503 1503 1504 1506 1507 1508 1510 1511 1512 1512 1513 1513 1514 1514 1515 1517 1518 1519 1520 1521 1523 1524 1525 1526 1528 1530 1532 1533 1535 1536
1488 1491 1494 1501 1503 1502 1502 1500 1498 1499 1500 1500 1500 1500 1501 1501 1500 1499 1498 1498 1498 1499 1500 1501 1502 1504 1505 1505 1506 1506 1507 1507 1508 1509 1509 1511 1512 1513 1514 1516 1517 1518 1520 1521 1523 1524 1526 1528 1530
1489 1490 1493 1497 1503 1505 1502 1494 1495 1499 1500 1500 1500 1499 1499 1499 1498 1497 1496 1495 1494 1494 1494 1495 1495 1496 1497 1498 1499 1499 1499 1500 1500 1501 1501 1503 1504 1505 1506 1508 1509 1510 1512 1513 1515 1517 1519 1521 1523
1491 1492 1494 1498 1497 1497 1500 1490 1491 1496 1498 1499 1499 1499 1499 1498 1497 1496 1494 1492 1491 1490 1490 1490 1490 1490 1490 1491 1491 1491 1491 1491 1492 1494 1494 1495 1496 1496 1498 1499 1501 1502 1504 1506 1508 1509 1512 1514 1515
1492 1496 1497 1499 1497 1498 1500 1494 1486 1494 1496 1498 1499 1499 1499 1498 1496 1494 1492 1491 1490 1489 1487 1486 1486 1485 1485 1485 1485 1485 1485 1485 1487 1487 1487 1488 1488 1488 1489 1491 1493 1494 1496 1498 1500 1501 1503 1505 1507
1496 1500 1502 1502 1499 1499 1495 1493 1484 1489 1492 1496 1498 1499 1498 1497 1495 1493 1491 1490 1488 1487 1485 1484 1483 1482 1481 1480 1479 1479 1478 1479 1479 1480 1480 1480 1481 1481 1481 1482 1484 1485 1487 1489 1491 1493 1495 1497 1499
1495 1498 1501 1501 1499 1491 1501 1498 1485 1490 1493 1495 1497 1498 1497 1496 1494 1492 1490 1488 1486 1484 1482 1481 1479 1478 1477 1475 1474 1473 1472 1472 1472 1472 1473 1473 1473 1473 1474 1475 1476 1477 1478 1481 1483 1484 1486 1488 1491
1495 1494 1491 1488 1487 1487 1503 1494 1486 1491 1494 1496 1497 1497 1496 1495 1493 1490 1488 1485 1482 1480 1478 1476 1474 1473 1471 1470 1469 1467 1466 1465 1465 1465 1466 1466 1466 1467 1467 1468 1468 1470 1471 1473 1474 1476 1477 1480 1482
1495 1495 1496 1491 1494 1488 1484 1488 1488 1491 1492 1494 1495 1495 1494 1493 1491 1488 1485 1482 1479 1477 1474 1472 1470 1468 1466 1464 1463 1461 1460 1459 1459 1459 1459 1459 1459 1460 1460 1461 1461 1462 1464 1465 1466 1468 1470 1472 1474
1495 1494 1497 1496 1491 1481 1478 1480 1477 1486 1487 1490 1492 1492 1491 1490 1487 1485 1482 1478 1475 1473 1470 1468 1465 1463 1461 1459 1457 1455 1454 1454 1453 1452 1452 1452 1453 1453 1453 1454 1455 1455 1456 1458 1459 1461 1463 1465 1466
1496 1497 1495 1492 1491 1483 1475 1475 1476 1480 1484 1487 1488 1488 1488 1486 1483 1481 1478 1474 1472 1469 1466 1464 1461 1459 1456 1454 1452 1450 1449 1448 1447 1447 1447 1446 1446 1447 1447 1448 1448 1449 1450 1451 1452 1454 1456 1458 1459
1492 1491 1492 1490 1494 1493 1482 1479 1480 1482 1484 1486 1486 1485 1484 1482 1480 1477 1474 1471 1469 1466 1463 1460 1458 1455 1453 1451 1449 1447 1445 1444 1443 1442 1442 1441 1441 1441 1441 1442 1442 1443 1444 1445 1446 1447 1449 1451 1453